Airfield :
LOGIN :

Register | Disclaimer

   EN    FR    IT 

 










Legend :    VFR   Marginal VFR   IFR   Intensive IFR   Very Intensive IFR
Visi :
Ceiling :
>= 8 km
>= 3000ft
5 to 8 km
1000 to 3000 ft
1500m to 5 km
500 to 1000 ft
800 to 1500m
200 to 500 ft
< 800m
< 200 ft
Symbols :   Thunderstorms  Fog  Heavy snow  Heavy precipitations  Wind > 20 kt
SIGMETs :     Misc.  Thunderstorms  Icing  Turbulence  Mountain Waves  Volcanic Ashes






- Airport Elevation : 265 ft


LFMC - Le Luc

CURRENT METAR :
  • 301400Z AUTO VRB03KT 9999 ////// 16/03 Q1014

EXPIRED METARs :
  • 301330Z AUTO 31003KT 240V350 9999 ////// 16/03 Q1014
  • 301300Z AUTO 28005KT 230V320 9999 ////// 15/03 Q1014
  • 301230Z AUTO 29007KT 260V340 9999 ////// 15/02 Q1014
  • 301130Z AUTO VRB02KT 9999 ////// 13/05 Q1014

TAF N/A



MET'MAP, your aeronautical weather chart ! - Copyright ORBIFLY December 2007 - Disclaimer

ORBIFLY MET'MAP TEAM :

Programming & Development : Alexandra Zaïnal
Original concept : Baudouin d'Aumeries
Technical & hardware support : Manuel Goepfert
Assistance : Marc-Olivier Méhu




SOURCES & CREDITS :

   NOAA